Location: Newark
(55.7083°N, 13.1992°E)
Time: 01:50:01
(UTC+00:00)

BEESAT - Visible Passes

Search period start: 03 April 2020 00:00
Search period end: 13 April 2020 00:00
Orbit: 700 x 709 km, 98.6° (Epoch: 02 April)

Date Brightness Start Highest point End Pass type
(mag) Time Alt. Az. Time Alt. Az. Time Alt. Az.
03 Apr ? 02:51:08 10° SE 02:55:26 35° ENE 02:59:47 10° N visible
03 Apr ? 19:37:22 10° NNW 19:39:45 14° NW 19:42:06 10° WNW visible
04 Apr ? 01:58:41 10° E 02:01:39 17° NE 02:04:38 10° N visible
04 Apr ? 03:33:56 10° SSE 03:38:40 72° ENE 03:43:26 10° NNW visible
04 Apr ? 18:41:58 10° N 18:46:03 28° WNW 18:50:07 10° WSW visible
05 Apr ? 02:40:28 10° ESE 02:44:35 30° ENE 02:48:44 10° N visible
05 Apr ? 19:26:07 10° NNW 19:28:57 16° NW 19:31:49 10° W visible
06 Apr ? 01:48:21 10° ENE 01:50:52 14° NE 01:53:24 10° NNE visible
06 Apr ? 03:23:05 10° SE 03:27:45 60° ENE 03:32:27 10° N visible
06 Apr ? 18:30:54 10° N 18:35:12 34° WNW 18:39:28 10° WSW visible
07 Apr ? 02:29:51 10° ESE 02:33:45 26° NE 02:37:39 10° N visible
07 Apr ? 19:14:54 10° N 19:18:10 19° NW 19:21:25 10° W visible
08 Apr ? 01:38:09 10° ENE 01:40:06 12° NE 01:42:02 10° NNE visible
08 Apr ? 03:12:16 10° SE 03:16:50 49° ENE 03:21:27 10° N visible
08 Apr ? 20:00:02 10° NNW 20:00:55 10° NW 20:01:48 10° NW visible
09 Apr ? 02:19:18 10° ESE 02:22:55 22° NE 02:26:32 10° N visible
09 Apr ? 19:03:45 10° N 19:07:21 22° NW 19:10:57 10° WSW visible
10 Apr ? 01:28:16 10° NE 01:29:20 11° NE 01:30:24 10° NNE visible
10 Apr ? 03:01:30 10° SE 03:05:57 41° ENE 03:10:26 10° N visible
10 Apr ? 19:48:18 10° NNW 19:50:10 12° NW 19:52:02 10° WNW visible
11 Apr ? 02:08:48 10° E 02:12:05 19° NE 02:15:24 10° N visible
11 Apr ? 18:52:38 10° N 18:56:31 25° NW 19:00:24 10° WSW visible
12 Apr ? 02:50:47 10° SE 02:55:04 34° ENE 02:59:23 10° N visible
12 Apr ? 19:36:55 10° NNW 19:39:23 14° NW 19:41:52 10° WNW visible
